CZ-6A DEB, 54962

Orbit data source: Space-Track

CZ-6A DEB, 54962 is space debris in SSO originally from a launch on Fri, 11 Nov 2022 UTC launched from the Taiyaun Space Center, China (TSC). Debris objects in space refer to the collection of defunct objects orbiting the Earth. Examples of debris include non-operational satellites, rocket bodies, and fragments generated from explosions, collisions, or faulty payload assembly.

Loading next visibility...
Identifier
54962, 2022-151TB
Orbit
SSO
Country
Flag of CNCN / PRC
Related business
Manufacturer
SAST
Mission
Spacecraft
Bus & Motor
Unknown
Mass
Unknown
Launch date (UTC)
2022-11-11 (4 years ago)
Launch vehicle
Unknown
Launch site
Taiyaun Space Center, China (TSC)
Object type
Payload
Rocket body
Debris
Shape & HBR
Unknown shape, 0.1 m
Radar Cross Section
Medium (>0.1 m² and <1 m²)

Expand to show TLE details & history
Last TLE update: 2 days ago

TLE from 2 days ago
0 CZ-6A DEB
1 54962U 22151TB  26171.43807150  .00000965  00000-0  21591-3 0  9993
2 54962  98.5871 235.7579 0126116 248.3452 110.4274 14.54438550190614
Epoch: 2026-06-20T10:30Z
TLE epoch observation values (Epoch: 2026-06-20T10:30:49.377Z)
Latitude
0.00005°
Longitude
169.39946°
Altitude
746.349 km
Speed
7.465 km/s
True Right ascension
15h 43m 01s
True Declination
0° 00' 00"
Sunlit
Object was in full shadow at epoch
Visualization orbit readout
Latitude
Unknown
Longitude
Unknown
Altitude
Unknown
Speed
Unknown
Apparent Right ascension
Unknown
Apparent Declination
Unknown
Sunlit
N/A
Visualization observer readout
Local Sidereal Time
21:29:17
Azimuth
Unknown
Elevation
Unknown
Doppler factor
Unknown
Orbital elements
Apogee altitude
797.666 km
Perigee altitude
618.923 km
Semi-major axis
7,086.432 km
Eccentricity
0.01261
Inclination
98.5871°
RAAN
235.7579°
Arg. of periapsis
248.3452°
True anomaly
111.77417°
Mean anomaly
110.4274°
Eccentric anomaly
111.10154°
Mean motion
3.63833 °/min
Orbital period
98.95 mins
BSTAR
0.00021591
Loading maneuver chart data...
Computing Atmospheric mass density...
Loading historical data...
Loading historical data...
Loading historical data...
Loading historical data...
Loading historical data...
Loading historical data...
Loading historical data...

Documentation

Showing up to 5 results
|